1493964000.95,5590,14.31,73730.8,9.47,-27.35,-29.83,0,*4D
1493964002.21,5591,14.31,73734.0,9.49,-27.19,-29.51,0,*43
1493964003.46,5592,14.31,73732.0,9.49,-27.29,-29.73,0,*43
1493964004.69,5593,14.25,73726.0,9.49,-26.87,-29.13,0,*41
1493964005.93,5594,14.31,73730.0,9.49,-27.19,-29.57,0,*40
1493964007.17,5595,14.31,73732.3,9.49,-26.97,-29.23,0,*45
1493964008.43,5596,14.25,73728.3,9.49,-27.19,-29.51,0,*44
1493964009.71,5597,14.31,73730.3,9.49,-26.81,-29.17,0,*47
1493964010.93,5598,14.31,73730.5,9.53,-26.61,-28.85,0,*47
1493964012.19,5599,14.25,73728.0,9.53,-26.97,-29.29,0,*48
1493964013.44,5600,14.31,73732.5,9.53,-27.07,-29.35,0,*4E
1493964014.7,5601,14.31,73730.5,9.49,-27.83,-30.05,0,*43
1493964015.94,5602,14.31,73730.5,9.53,-27.77,-30.05,0,*40
1493964017.2,5603,14.31,73730.8,9.49,-28.37,-30.77,0,*44
1493964018.44,5604,14.25,73730.3,9.49,-27.71,-30.05,0,*4B
1493964019.7,5605,14.31,73732.5,9.49,-27.35,-29.73,0,*43
1493964020.98,5606,14.31,73734.3,9.49,-28.05,-30.55,0,*40
1493964022.25,5607,14.31,73734.3,9.49,-28.47,-30.89,0,*46
1493964023.44,5608,14.25,73730.8,9.47,-27.89,-30.27,0,*4E
1493964024.68,5609,14.31,73732.3,9.45,-27.23,-29.57,0,*42
1493964025.95,5610,14.25,73728.0,9.49,-27.45,-29.73,0,*40
1493964027.22,5611,14.25,73732.0,9.49,-26.97,-29.17,0,*4D
1493964028.47,5612,14.25,73728.8,9.47,-26.81,-28.91,0,*48
1493964029.74,5613,14.25,73728.8,9.49,-26.81,-28.91,0,*47
1493964030.99,5614,14.31,73730.8,9.49,-26.61,-28.63,0,*43
1493964032.24,5615,14.25,73728.8,9.49,-26.65,-28.91,0,*4B
1493964033.48,5616,14.25,73730.3,9.49,-27.13,-29.35,0,*47
1493964034.73,5617,14.25,73728.0,9.53,-27.45,-29.83,0,*43
1493964035.97,5618,14.31,73732.0,9.49,-27.13,-29.35,0,*49
1493964037.19,5619,14.25,73728.8,9.49,-27.03,-29.23,0,*4E
1493964038.41,5620,14.25,73728.5,9.53,-27.55,-29.83,0,*46
1493964039.65,5621,14.31,73732.8,9.53,-27.13,-29.35,0,*48
1493964040.92,5622,14.25,73730.8,9.53,-26.97,-29.01,0,*41
1493964042.16,5623,14.25,73732.0,9.53,-27.83,-30.23,0,*4C
1493964043.43,5624,14.25,73728.3,9.53,-27.83,-30.17,0,*4C
1493964044.67,5625,14.31,73734.3,9.53,-27.45,-29.79,0,*47
1493964045.92,5626,14.25,73730.8,9.53,-27.61,-29.83,0,*47
1493964047.16,5627,14.25,73728.8,9.55,-27.35,-29.73,0,*4E
1493964048.37,5628,14.25,73732.0,9.55,-27.51,-29.73,0,*43
1493964049.6,5629,14.25,73728.0,9.53,-27.67,-29.83,0,*4E
1493964050.81,5630,14.25,73730.8,9.53,-27.13,-29.45,0,*4F
1493964052.08,5631,14.25,73730.5,9.53,-27.83,-29.89,0,*47
1493964053.3,5632,14.25,73730.5,9.55,-28.05,-30.27,0,*4F
1493964054.55,5633,14.31,73732.3,9.57,-27.93,-30.17,0,*4F
1493964055.81,5634,14.25,73732.5,9.49,-27.83,-30.05,0,*45
1493964057.08,5635,14.25,73734.8,9.53,-27.83,-30.01,0,*4B
1493964058.32,5636,14.25,73730.5,9.53,-27.99,-30.23,0,*43
1493964059.56,5637,14.25,73732.5,9.53,-28.15,-30.39,0,*42
1493964060.8,5638,14.25,73728.3,9.49,-27.99,-30.11,0,*47
1493964062.04,5639,14.31,73734.3,9.49,-27.51,-29.73,0,*4E
1493964063.29,5640,14.31,73734.3,9.49,-27.45,-29.67,0,*40
1493964064.56,5641,14.25,73728.5,9.49,-27.45,-29.73,0,*44
1493964065.77,5642,14.25,73728.8,9.49,-27.71,-29.95,0,*48
1493964066.99,5643,14.25,73732.0,9.49,-27.51,-29.83,0,*4C
1493964068.24,5644,14.31,73734.5,9.53,-27.61,-29.79,0,*46
1493964069.48,5645,14.31,73734.8,9.49,-27.83,-29.95,0,*42
1493964070.73,5646,14.31,73732.8,9.49,-28.21,-30.45,0,*43
1493964071.97,5647,14.25,73734.5,9.49,-28.05,-30.11,0,*45
1493964073.22,5648,14.25,73732.5,9.49,-28.05,-30.23,0,*4B
1493964074.46,5649,14.31,73730.8,9.53,-27.45,-29.79,0,*4D
1493964075.67,5650,14.25,73732.3,9.49,-27.71,-29.95,0,*4B
1493964076.93,5651,14.25,73732.3,9.49,-27.61,-29.83,0,*4C
1493964078.14,5652,14.25,73730.3,9.49,-27.71,-29.95,0,*49
1493964079.36,5653,14.25,73732.3,9.49,-27.51,-29.83,0,*4D
1493964080.59,5654,14.25,73734.0,9.47,-27.61,-29.83,0,*47
1493964081.83,5655,14.25,73730.5,9.47,-27.19,-29.51,0,*46
1493964083.1,5656,14.25,73728.0,9.49,-28.21,-30.55,0,*43
1493964084.34,5657,14.25,73730.5,9.49,-28.31,-30.55,0,*43
1493964085.56,5658,14.25,73728.3,9.47,-28.63,-31.01,0,*45
1493964086.85,5659,14.25,73730.8,9.45,-28.25,-30.77,0,*44
1493964088.11,5660,14.25,73732.3,9.45,-28.25,-30.67,0,*4F
1493964089.36,5661,14.25,73730.0,9.43,-28.21,-30.51,0,*49
1493964090.58,5662,14.25,73730.8,9.43,-27.55,-29.89,0,*4B
1493964091.81,5663,14.25,73734.0,9.43,-27.67,-29.89,0,*4B
1493964093.05,5664,14.25,73730.5,9.45,-27.07,-29.29,0,*46
1493964094.29,5665,14.25,73728.5,9.45,-26.87,-29.13,0,*47
1493964095.57,5666,14.25,73734.5,9.45,-26.77,-28.91,0,*40
1493964096.81,5667,14.25,73730.8,9.45,-27.77,-30.01,0,*40
1493964098.06,5668,14.25,73728.3,9.45,-27.23,-29.61,0,*40
1493964099.28,5669,14.25,73730.5,9.47,-27.29,-29.39,0,*44
1493964100.49,5670,14.25,73730.8,9.45,-26.87,-29.07,0,*46
1493964101.73,5671,14.25,73734.0,9.47,-26.71,-28.91,0,*42
1493964102.94,5672,14.25,73730.0,9.45,-27.03,-29.23,0,*4F
1493964104.16,5673,14.25,73730.0,9.47,-27.13,-29.51,0,*48
1493964105.4,5674,14.25,73730.8,9.47,-27.35,-29.51,0,*4B
1493964106.65,5675,14.25,73734.8,9.49,-27.13,-29.35,0,*42
1493964107.87,5676,14.25,73730.8,9.49,-27.67,-29.83,0,*4F
1493964109.12,5677,14.25,73734.0,9.49,-28.21,-30.27,0,*45
1493964110.36,5678,14.25,73734.3,9.47,-28.47,-30.61,0,*46
1493964111.55,5679,14.25,73732.0,9.47,-27.51,-29.67,0,*41
1493964112.77,5680,14.25,73730.8,9.47,-27.13,-29.17,0,*46
1493964113.95,5681,14.31,73732.3,9.47,-27.03,-29.07,0,*47
1493964115.19,5682,14.31,73734.5,9.49,-26.87,-28.91,0,*49
1493964116.46,5683,14.25,73732.0,9.49,-26.97,-29.01,0,*41
1493964117.72,5684,14.25,73734.0,9.49,-27.29,-29.35,0,*45
1493964118.92,5685,14.25,73728.8,9.49,-27.13,-29.07,0,*4C
1493964120.11,5686,14.25,73734.3,9.55,-27.07,-29.07,0,*47
1493964121.38,5687,14.25,73730.3,9.53,-26.81,-28.75,0,*4B
1493964122.66,5688,14.25,73730.0,9.53,-26.81,-28.63,0,*43
1493964123.92,5689,14.25,73734.5,9.49,-27.35,-29.35,0,*45
1493964125.17,5690,14.31,73734.3,9.53,-27.67,-29.51,0,*43
1493964126.43,5691,14.25,73730.8,9.53,-27.23,-29.13,0,*44
1493964127.62,5692,14.25,73734.3,9.55,-27.03,-28.97,0,*4E
1493964128.83,5693,14.25,73730.5,9.55,-27.39,-29.23,0,*48
1493964130.02,5694,14.25,73732.0,9.55,-27.93,-29.79,0,*40
1493964131.26,5695,14.25,73730.0,9.53,-27.07,-29.01,0,*45
1493964132.49,5696,14.25,73734.0,9.55,-27.39,-29.29,0,*47
1493964133.71,5697,14.25,73732.5,9.55,-27.03,-28.63,0,*40
1493964134.91,5698,14.25,73732.0,9.55,-27.71,-29.57,0,*4C
1493964136.14,5699,14.25,73732.0,9.53,-27.29,-29.13,0,*46
1493964137.41,5700,14.25,73730.0,9.57,-26.55,-28.25,0,*4D
1493964138.63,5701,14.25,73730.5,9.57,-27.07,-28.97,0,*43
1493964139.87,5702,14.25,73734.3,9.57,-27.23,-29.07,0,*4E
1493964141.12,5703,14.25,73732.5,9.57,-27.07,-28.91,0,*47
1493964142.35,5704,14.25,73734.8,9.57,-27.35,-29.07,0,*4F
1493964143.58,5705,14.25,73734.8,9.57,-27.55,-29.29,0,*44
1493964144.83,5706,14.25,73732.0,9.57,-26.61,-28.21,0,*48
1493964146.08,5707,14.25,73732.0,9.57,-26.61,-28.25,0,*4D
1493964147.26,5708,14.25,73730.5,9.59,-27.51,-29.23,0,*49
1493964148.48,5709,14.25,73732.8,9.59,-27.89,-29.73,0,*48
1493964149.7,5710,14.25,73732.8,9.61,-27.29,-28.97,0,*4A
1493964150.9,5711,14.25,73728.8,9.59,-27.13,-28.85,0,*4A
1493964152.14,5712,14.25,73734.3,9.59,-26.93,-28.47,0,*4E
1493964153.4,5713,14.25,73734.0,9.61,-26.65,-28.25,0,*49
1493964154.65,5714,14.25,73734.5,9.61,-26.81,-28.53,0,*45
1493964155.9,5715,14.25,73732.3,9.61,-26.65,-28.25,0,*4F
1493964157.12,5716,14.25,73730.8,9.63,-26.61,-28.25,0,*4A
1493964158.34,5717,14.25,73732.0,9.63,-26.29,-27.77,0,*4F
1493964159.58,5718,14.25,73732.3,9.65,-26.07,-27.61,0,*4D
1493964160.84,5719,14.25,73734.5,9.65,-26.03,-27.61,0,*48
1493964162.06,5720,14.25,73734.5,9.67,-25.97,-27.51,0,*4D
1493964163.28,5721,14.25,73734.8,9.69,-26.03,-27.55,0,*48
1493964164.51,5722,14.25,73734.3,9.69,-26.03,-27.55,0,*4B
1493964165.75,5723,14.25,73734.0,9.69,-25.97,-27.55,0,*44
1493964167.02,5724,14.25,73732.5,9.73,-25.81,-27.45,0,*4E
1493964168.2,5725,14.25,73730.5,9.71,-26.23,-27.77,0,*47
1493964169.45,5726,14.25,73728.0,9.73,-26.61,-27.99,0,*40
1493964170.69,5727,14.25,73736.3,9.73,-26.45,-28.09,0,*41
1493964171.92,5728,14.25,73732.3,9.79,-26.33,-27.89,0,*42
1493964173.15,5729,14.25,73732.5,9.79,-26.39,-28.05,0,*42
1493964174.36,5730,14.25,73732.8,9.79,-26.87,-28.75,0,*48
1493964175.56,5731,14.25,73734.3,9.79,-26.65,-28.53,0,*41
1493964176.8,5732,14.25,73728.5,9.77,-26.45,-28.21,0,*4B
1493964178.03,5733,14.25,73734.5,9.79,-26.65,-28.25,0,*42
1493964179.22,5734,14.25,73734.5,9.79,-26.23,-27.89,0,*4E
1493964180.47,5735,14.25,73730.0,9.83,-26.13,-27.61,0,*4F
1493964181.71,5736,14.25,73728.8,9.85,-26.07,-27.83,0,*43
1493964182.91,5737,14.25,73732.8,9.83,-26.49,-28.15,0,*4E
1493964184.18,5738,14.25,73728.0,9.85,-26.29,-27.99,0,*4A
1493964185.4,5739,14.25,73732.5,9.85,-26.45,-28.15,0,*4A
1493964186.62,5740,14.25,73734.0,9.85,-26.61,-28.53,0,*40
1493964187.84,5741,14.25,73734.3,9.87,-26.23,-28.09,0,*4A
1493964189.11,5742,14.25,73732.0,9.85,-26.29,-27.99,0,*47
1493964190.35,5743,14.25,73728.8,9.87,-26.71,-28.59,0,*4A
1493964191.56,5744,14.25,73732.0,9.87,-27.23,-29.23,0,*47
1493964192.79,5745,14.25,73732.5,9.87,-27.61,-29.61,0,*46
1493964194.01,5746,14.25,73732.5,9.87,-27.61,-29.61,0,*45
1493964195.24,5747,14.25,73728.8,9.89,-27.55,-29.57,0,*48
1493964196.43,5748,14.25,73732.8,9.87,-27.07,-29.07,0,*4B
1493964197.68,5749,14.25,73732.0,9.87,-26.93,-28.63,0,*45
1493964198.87,5750,14.25,73732.5,9.87,-27.03,-28.97,0,*4E
1493964200.09,5751,14.25,73732.0,9.85,-27.67,-29.67,0,*41
1493964201.3,5752,14.25,73734.0,9.87,-27.13,-29.29,0,*49
1493964202.55,5753,14.25,73734.5,9.85,-27.93,-30.01,0,*40
1493964203.82,5754,14.25,73734.0,9.85,-28.21,-30.39,0,*4A
1493964205.07,5755,14.25,73734.3,9.85,-27.19,-29.13,0,*4F
1493964206.34,5756,14.25,73734.5,9.85,-27.19,-29.35,0,*48
1493964207.6,5757,14.25,73732.3,9.85,-26.97,-28.79,0,*47
1493964208.85,5758,14.25,73734.8,9.85,-27.51,-29.51,0,*48
1493964210.09,5759,14.25,73730.3,9.85,-27.51,-29.51,0,*49
1493964211.37,5760,14.25,73728.5,9.85,-26.77,-28.63,0,*46
1493964212.61,5761,14.25,73730.0,9.85,-26.97,-28.97,0,*42
1493964213.84,5762,14.25,73734.5,9.85,-26.49,-28.37,0,*48
1493964215.05,5763,14.25,73732.5,9.87,-26.61,-28.47,0,*46
1493964216.27,5764,14.25,73734.8,9.87,-26.61,-28.47,0,*41
1493964217.48,5765,14.25,73730.8,9.87,-26.23,-28.09,0,*4C
1493964218.68,5766,14.25,73732.8,9.87,-26.07,-27.89,0,*4E
1493964219.96,5767,14.25,73734.8,9.89,-26.17,-28.05,0,*4B
1493964221.18,5768,14.25,73730.3,9.91,-26.17,-27.71,0,*41
1493964222.41,5769,14.25,73734.0,9.91,-25.97,-27.67,0,*4C
1493964223.63,5770,14.25,73730.8,9.91,-26.07,-27.83,0,*44
1493964224.87,5771,14.25,73732.5,9.91,-26.71,-28.43,0,*47
1493964226.09,5772,14.25,73732.0,9.91,-26.81,-28.53,0,*4A
1493964227.31,5773,14.25,73728.0,9.91,-27.03,-28.75,0,*44
1493964228.54,5774,14.25,73732.8,9.93,-26.65,-28.31,0,*40
1493964229.76,5775,14.25,73732.8,9.95,-26.45,-27.99,0,*48
1493964231.0,5776,14.25,73732.8,9.95,-27.23,-28.79,0,*4B
1493964232.27,5777,14.25,73732.0,9.93,-27.83,-29.51,0,*4D
1493964233.51,5778,14.25,73734.0,9.93,-27.61,-29.07,0,*4D
1493964234.78,5779,14.25,73734.5,9.93,-27.99,-29.51,0,*48
1493964235.97,5780,14.25,73734.0,9.95,-27.55,-29.07,0,*4B
1493964237.24,5781,14.25,73734.5,9.93,-27.19,-28.63,0,*47
1493964238.49,5782,14.25,73734.0,9.93,-26.81,-28.31,0,*43
1493964239.72,5783,14.25,73734.8,9.95,-27.07,-28.47,0,*4A
1493964240.97,5784,14.25,73730.8,9.95,-26.93,-28.25,0,*45
1493964242.19,5785,14.25,73732.5,9.95,-27.07,-28.43,0,*48
1493964243.41,5786,14.25,73732.0,9.99,-27.07,-28.43,0,*47
1493964244.63,5787,14.25,73734.8,9.99,-27.13,-28.59,0,*48
1493964245.83,5788,14.25,73730.5,9.99,-26.87,-28.31,0,*45
1493964247.06,5789,14.25,73732.8,9.99,-26.93,-28.31,0,*41
1493964248.27,5790,14.25,73732.3,9.99,-26.71,-27.93,0,*42
1493964249.51,5791,14.25,73736.5,10.01,-27.23,-28.69,0,*76
1493964250.76,5792,14.25,73734.5,10.01,-27.35,-28.69,0,*72
1493964252.0,5793,14.25,73734.0,10.01,-27.39,-28.85,0,*7D
1493964253.27,5794,14.25,73734.0,10.01,-27.23,-28.59,0,*70
1493964254.51,5795,14.25,73728.8,10.01,-27.19,-28.53,0,*72
1493964255.79,5796,14.25,73732.5,10.01,-26.81,-28.21,0,*74
1493964257.02,5797,14.25,73732.3,10.05,-26.61,-28.05,0,*79
1493964258.26,5798,14.25,73736.0,10.05,-27.45,-28.85,0,*79
1493964259.49,5799,14.25,73732.8,10.05,-27.89,-29.35,0,*72
1493964260.7,5800,14.25,73728.8,10.03,-27.83,-29.07,0,*70
1493964261.93,5801,14.25,73734.8,10.03,-27.29,-28.63,0,*72
1493964263.2,5802,14.25,73732.3,10.05,-26.97,-28.21,0,*75
1493964264.4,5803,14.25,73734.0,10.05,-26.87,-28.31,0,*74
1493964265.64,5804,14.25,73732.5,10.05,-27.45,-28.85,0,*73
1493964266.85,5805,14.25,73734.0,10.03,-27.35,-28.53,0,*78
1493964268.1,5806,14.25,73734.8,10.05,-27.19,-28.47,0,*76
1493964269.38,5807,14.25,73734.3,10.07,-26.71,-27.99,0,*76
1493964270.65,5808,14.25,73734.5,10.07,-27.23,-28.47,0,*73
1493964271.87,5809,14.25,73734.0,10.09,-27.19,-28.53,0,*70
1493964273.1,5810,14.25,73734.3,10.09,-27.07,-28.43,0,*76
1493964274.35,5811,14.25,73732.3,10.09,-26.93,-28.21,0,*7F
1493964275.6,5812,14.25,73732.3,10.07,-27.29,-28.75,0,*73
1493964276.83,5813,14.25,73734.0,10.09,-27.23,-28.69,0,*7B
1493964278.05,5814,14.25,73734.8,10.11,-27.03,-28.37,0,*7C
1493964279.3,5815,14.25,73732.0,10.09,-26.71,-28.05,0,*71
1493964280.5,5816,14.25,73732.3,10.13,-26.45,-27.67,0,*75
1493964281.73,5817,14.25,73732.8,10.11,-26.49,-27.71,0,*7D
1493964282.98,5818,14.25,73734.3,10.13,-26.71,-27.99,0,*7D
1493964284.23,5819,14.25,73734.3,10.13,-26.71,-27.99,0,*7C
1493964285.43,5820,14.25,73732.3,10.13,-27.03,-28.37,0,*79
1493964286.67,5821,14.25,73732.8,10.13,-27.45,-28.79,0,*70
1493964287.9,5822,14.25,73732.8,10.13,-27.13,-28.21,0,*7D
1493964289.1,5823,14.25,73730.0,10.13,-27.03,-28.31,0,*7C
1493964290.32,5824,14.25,73732.3,10.13,-26.71,-27.89,0,*73
1493964291.61,5825,14.25,73730.5,10.15,-26.81,-27.99,0,*7A
1493964292.84,5826,14.25,73732.5,10.15,-26.49,-27.67,0,*7C
1493964294.06,5827,14.25,73734.5,10.15,-26.61,-27.71,0,*70
1493964295.32,5828,14.25,73732.0,10.17,-26.81,-28.09,0,*73
1493964296.57,5829,14.25,73730.5,10.17,-26.93,-28.25,0,*7F
1493964297.77,5830,14.25,73734.3,10.21,-27.71,-28.97,0,*76
1493964298.99,5831,14.25,73732.5,10.21,-27.71,-28.91,0,*71
1493964300.24,5832,14.25,73732.0,10.17,-27.61,-28.79,0,*70
1493964301.47,5833,14.25,73730.3,10.17,-26.97,-28.15,0,*73
1493964302.68,5834,14.25,73730.5,10.17,-27.07,-28.31,0,*7A
1493964303.93,5835,14.25,73728.5,10.23,-27.07,-28.21,0,*7D
1493964305.18,5836,14.25,73730.3,10.21,-27.23,-28.43,0,*7E
1493964306.4,5837,14.25,73730.0,10.21,-27.55,-28.79,0,*77
1493964307.62,5838,14.25,73734.0,10.21,-27.39,-28.53,0,*7A
1493964308.81,5839,14.25,73732.3,10.21,-26.87,-27.89,0,*77
1493964310.07,5840,14.25,73732.3,10.21,-26.77,-28.05,0,*7D
1493964311.33,5841,14.25,73734.0,10.21,-26.33,-27.39,0,*7C
1493964312.55,5842,14.25,73730.3,10.23,-26.61,-27.77,0,*70
1493964313.82,5843,14.25,73734.8,10.27,-26.33,-27.45,0,*73
1493964315.04,5844,14.25,73732.5,10.25,-26.55,-27.71,0,*71
1493964316.31,5845,14.25,73730.0,10.27,-26.33,-27.45,0,*75
1493964317.59,5846,14.25,73732.0,10.27,-26.29,-27.35,0,*7A
1493964318.82,5847,14.25,73732.0,10.27,-26.45,-27.51,0,*73
1493964320.09,5848,14.25,73736.5,10.31,-26.55,-27.61,0,*79
1493964321.33,5849,14.25,73732.8,10.31,-26.45,-27.45,0,*7F
1493964322.56,5850,14.25,73734.5,10.31,-26.61,-27.77,0,*70
1493964323.78,5851,14.25,73732.8,10.31,-26.61,-27.77,0,*71
1493964325.03,5852,14.25,73732.5,10.31,-26.71,-27.89,0,*72
1493964326.25,5853,14.25,73732.3,10.33,-26.77,-28.15,0,*7D
1493964327.48,5854,14.25,73734.3,10.33,-26.81,-27.89,0,*79
1493964328.68,5855,14.25,73734.5,10.33,-26.65,-27.71,0,*75
1493964329.92,5856,14.25,73732.3,10.35,-26.71,-27.71,0,*75
1493964331.17,5857,14.25,73730.8,10.35,-26.55,-27.67,0,*75
1493964332.39,5858,14.25,73730.3,10.35,-26.39,-27.55,0,*71
1493964333.64,5859,14.25,73732.5,10.35,-26.65,-27.83,0,*72
1493964334.9,5860,14.25,73732.0,10.39,-26.77,-27.83,0,*77
1493964336.18,5861,14.25,73728.0,10.37,-26.77,-27.61,0,*74
1493964337.41,5862,14.25,73732.3,10.39,-26.77,-27.93,0,*74
1493964338.64,5863,14.25,73734.8,10.39,-27.61,-28.97,0,*78
1493964339.89,5864,14.25,73730.8,10.37,-27.23,-28.31,0,*7B
1493964341.12,5865,14.25,73732.0,10.37,-26.61,-27.67,0,*71
1493964342.4,5866,14.25,73732.0,10.37,-26.77,-27.83,0,*7F
1493964343.65,5867,14.25,73732.3,10.39,-27.35,-28.47,0,*70
1493964344.88,5868,14.25,73734.3,10.41,-26.39,-27.29,0,*7A
1493964346.13,5869,14.25,73730.8,10.41,-26.03,-26.93,0,*72
1493964347.38,5870,14.25,73728.5,10.41,-26.29,-27.29,0,*72
1493964348.66,5871,14.25,73734.5,10.41,-25.71,-26.77,0,*77
1493964349.88,5872,14.25,73730.8,10.47,-26.13,-27.13,0,*76
1493964351.13,5873,14.25,73732.5,10.45,-26.55,-27.71,0,*73
1493964352.38,5874,14.25,73732.0,10.49,-26.07,-27.23,0,*78
1493964353.63,5875,14.25,73732.3,10.51,-25.75,-26.77,0,*76
1493964354.88,5876,14.25,73730.5,10.49,-26.07,-26.97,0,*74
1493964356.13,5877,14.25,73732.5,10.53,-26.13,-27.07,0,*73
1493964357.38,5878,14.25,73730.8,10.51,-25.75,-26.81,0,*72
1493964358.65,5879,14.25,73732.5,10.53,-25.71,-26.77,0,*7C
1493964359.9,5880,14.25,73728.8,10.53,-25.87,-26.77,0,*73
1493964361.13,5881,14.25,73734.0,10.55,-26.17,-27.03,0,*7C
1493964362.38,5882,14.25,73732.5,10.57,-26.23,-27.35,0,*7F
1493964363.62,5883,14.25,73734.8,10.57,-25.97,-26.87,0,*7A
1493964364.85,5884,14.25,73734.5,10.57,-26.07,-27.07,0,*7E
1493964366.12,5885,14.25,73732.3,10.57,-26.17,-27.23,0,*78
1493964367.39,5886,14.25,73732.8,10.57,-25.97,-26.71,0,*76
1493964368.64,5887,14.25,73732.3,10.61,-25.75,-26.61,0,*7F
1493964369.88,5888,14.25,73730.5,10.61,-25.75,-26.61,0,*70
1493964371.1,5889,14.25,73732.8,10.63,-25.97,-26.87,0,*77
1493964372.32,5890,14.25,73734.3,10.67,-26.17,-27.07,0,*79
1493964373.57,5891,14.25,73730.5,10.67,-26.17,-26.93,0,*74
1493964374.76,5892,14.25,73734.8,10.67,-26.07,-26.87,0,*73
1493964376.01,5893,14.25,73734.0,10.67,-26.33,-27.19,0,*73
1493964377.25,5894,14.25,73732.8,10.67,-26.81,-27.83,0,*7E
1493964378.49,5895,14.25,73732.3,10.69,-26.33,-27.29,0,*78
1493964379.74,5896,14.25,73732.8,10.71,-26.33,-27.13,0,*7B
1493964380.96,5897,14.25,73734.8,10.69,-26.49,-27.45,0,*7D
1493964382.18,5898,14.25,73732.5,10.69,-26.87,-27.83,0,*7A
1493964383.45,5899,14.25,73732.5,10.71,-26.77,-27.61,0,*71
1493964384.71,5900,14.25,73732.3,10.71,-26.81,-27.93,0,*74
1493964385.93,5901,14.25,73730.5,10.71,-27.77,-28.69,0,*77
1493964387.18,5902,14.25,73732.0,10.69,-28.05,-29.01,0,*78
1493964388.38,5903,14.25,73734.0,10.69,-27.29,-28.15,0,*7C
1493964389.6,5904,14.25,73730.5,10.69,-27.45,-28.37,0,*71
1493964390.85,5905,14.25,73734.3,10.71,-27.67,-28.47,0,*7E
1493964392.11,5906,14.25,73734.3,10.69,-26.77,-27.61,0,*7F
1493964393.36,5907,14.25,73734.5,10.69,-26.97,-27.83,0,*7C
1493964394.63,5908,14.25,73732.8,10.71,-27.19,-28.05,0,*7C
1493964395.87,5909,14.25,73732.8,10.71,-27.93,-28.79,0,*74
1493964397.14,5910,14.25,73730.3,10.71,-27.35,-28.21,0,*7D
1493964398.36,5911,14.25,73732.0,10.71,-27.03,-27.93,0,*7F
1493964399.62,5912,14.25,73728.8,10.71,-26.33,-27.03,0,*77
1493964400.87,5913,14.25,73732.5,10.71,-26.49,-27.19,0,*70
1493964402.06,5914,14.25,73730.3,10.73,-27.07,-27.77,0,*76
1493964403.28,5915,14.25,73734.0,10.73,-26.39,-27.23,0,*7A
1493964404.5,5916,14.25,73734.5,10.75,-26.39,-27.07,0,*79
1493964405.72,5917,14.25,73732.5,10.75,-26.45,-27.13,0,*76
1493964406.97,5918,14.25,73732.5,10.75,-26.45,-27.23,0,*7A
1493964408.2,5919,14.19,73730.0,10.77,-26.55,-27.23,0,*78
1493964409.45,5920,14.25,73732.3,10.79,-26.13,-26.87,0,*71
1493964410.67,5921,14.25,73732.3,10.79,-26.45,-27.29,0,*76
1493964411.89,5922,14.25,73732.8,10.81,-26.49,-27.19,0,*7D
1493964413.14,5923,14.25,73734.3,10.81,-26.33,-27.19,0,*71
1493964414.38,5924,14.25,73734.5,10.83,-26.29,-27.13,0,*75
1493964415.62,5925,14.25,73732.8,10.83,-26.81,-27.71,0,*72
1493964416.84,5926,14.25,73734.0,10.85,-26.61,-27.39,0,*75
1493964418.06,5927,14.25,73734.5,10.85,-26.39,-27.23,0,*72
1493964419.28,5928,14.25,73732.5,10.85,-26.39,-27.23,0,*7D
1493964420.5,5929,14.25,73732.8,10.89,-26.39,-27.23,0,*70
1493964421.72,5930,14.25,73732.8,10.91,-26.45,-27.29,0,*70
1493964422.97,5931,14.25,73732.8,10.91,-26.97,-27.71,0,*73
1493964424.24,5932,14.25,73732.3,10.91,-26.81,-27.83,0,*7A
1493964425.47,5933,14.19,73730.3,10.93,-26.65,-27.61,0,*7F
1493964426.69,5934,14.25,73734.5,10.93,-26.65,-27.61,0,*78
1493964427.91,5935,14.25,73734.8,10.93,-26.71,-27.67,0,*7A
1493964429.14,5936,14.25,73728.8,10.95,-26.61,-27.67,0,*7E
1493964430.39,5937,14.25,73730.5,10.95,-26.49,-27.61,0,*73
1493964431.63,5938,14.25,73732.5,10.95,-26.39,-27.45,0,*7D
1493964432.9,5939,14.25,73730.3,10.95,-27.23,-28.47,0,*7B
1493964434.18,5940,14.25,73730.3,10.95,-26.97,-27.99,0,*77
1493964435.4,5941,14.25,73730.3,10.95,-26.65,-27.77,0,*7B
1493964436.62,5942,14.25,73734.3,10.95,-26.61,-27.77,0,*7C
1493964437.87,5943,14.25,73730.8,10.95,-25.81,-27.13,0,*72
1493964439.09,5944,14.25,73734.3,10.97,-26.03,-27.35,0,*7A
1493964440.32,5945,14.25,73728.8,10.97,-25.87,-27.35,0,*74
1493964441.51,5946,14.25,73730.0,10.97,-25.91,-27.51,0,*72
1493964442.73,5947,14.25,73734.3,10.97,-26.33,-27.77,0,*7C
1493964443.91,5948,14.25,73734.5,10.97,-26.45,-27.93,0,*78
1493964445.14,5949,14.25,73732.0,11.01,-26.29,-27.71,0,*71
1493964446.4,5950,14.25,73732.5,11.01,-25.81,-27.35,0,*78
1493964447.62,5951,14.25,73732.0,11.01,-25.29,-26.87,0,*73
1493964448.82,5952,14.25,73730.8,11.01,-25.65,-27.29,0,*7D
1493964450.08,5953,14.25,73730.8,11.01,-26.17,-27.83,0,*7A
1493964451.34,5954,14.19,73728.3,11.01,-26.29,-28.05,0,*71
1493964452.6,5955,14.25,73732.0,11.01,-26.33,-28.21,0,*7D
1493964453.83,5956,14.25,73734.3,11.01,-26.13,-27.89,0,*71
1493964455.03,5957,14.25,73732.5,11.01,-25.65,-27.55,0,*73
1493964456.31,5958,14.25,73730.0,11.03,-26.29,-28.43,0,*7D
1493964457.56,5959,14.25,73728.8,11.03,-26.45,-28.47,0,*72
1493964458.79,5960,14.25,73730.3,11.01,-25.55,-27.51,0,*70
1493964460.01,5961,14.25,73736.0,11.01,-25.19,-27.19,0,*75
1493964461.25,5962,14.25,73732.5,11.03,-25.49,-27.51,0,*7D
1493964462.48,5963,14.25,73732.3,11.03,-25.13,-27.13,0,*75
1493964463.74,5964,14.25,73732.0,11.05,-24.83,-26.81,0,*76
1493964464.97,5965,14.25,73730.8,11.07,-24.61,-26.45,0,*71
1493964466.21,5966,14.25,73734.0,11.07,-24.61,-26.23,0,*72
1493964467.44,5967,14.25,73732.8,11.07,-24.77,-26.45,0,*74
1493964468.7,5968,14.25,73732.3,11.11,-24.71,-26.49,0,*76
1493964469.93,5969,14.25,73730.5,11.11,-25.23,-26.87,0,*73
1493964471.16,5970,14.25,73732.5,11.11,-25.13,-26.65,0,*74
1493964472.37,5971,14.25,73734.8,11.13,-25.39,-27.03,0,*7E
1493964473.57,5972,14.25,73732.0,11.13,-25.39,-26.87,0,*70
1493964474.78,5973,14.19,73730.8,11.13,-25.49,-26.87,0,*76
1493964476.01,5974,14.25,73734.0,11.13,-25.55,-27.03,0,*71
1493964477.25,5975,14.25,73734.8,11.13,-25.55,-27.13,0,*71
1493964478.51,5976,14.25,73732.8,11.15,-26.33,-27.67,0,*74
1493964479.75,5977,14.25,73730.3,11.15,-26.49,-28.15,0,*72
1493964480.98,5978,14.25,73732.8,11.13,-26.71,-28.31,0,*76
1493964482.22,5979,14.25,73730.8,11.13,-26.65,-28.21,0,*73
1493964483.51,5980,14.19,73728.0,11.07,-26.17,-27.61,0,*7E
1493964484.77,5981,14.25,73732.3,11.11,-25.81,-27.29,0,*78
1493964486.06,5982,14.19,73728.5,11.11,-25.55,-27.35,0,*7F
1493964487.32,5983,14.25,73734.3,11.07,-25.65,-27.35,0,*7A
1493964488.52,5984,14.25,73732.5,11.13,-25.13,-26.65,0,*7D
1493964489.75,5985,14.25,73732.3,11.13,-25.35,-26.97,0,*75
1493964490.98,5986,14.25,73732.8,11.15,-25.09,-26.49,0,*7C
1493964492.24,5987,14.25,73730.5,11.15,-24.61,-26.33,0,*7F
1493964493.5,5988,14.19,73728.5,11.15,-24.77,-26.33,0,*77
1493964494.74,5989,14.19,73728.5,11.19,-24.77,-26.39,0,*70
1493964496.02,5990,14.25,73732.5,11.19,-25.45,-27.19,0,*7B
1493964497.27,5991,14.25,73732.5,11.19,-25.29,-26.87,0,*76
1493964498.52,5992,14.25,73734.5,11.19,-24.93,-26.55,0,*7A
1493964499.72,5993,14.25,73732.5,11.21,-25.09,-26.61,0,*75
1493964500.99,5994,14.25,73734.3,11.21,-25.71,-27.19,0,*73
1493964502.22,5995,14.25,73732.3,11.21,-25.87,-27.23,0,*72
1493964503.48,5996,14.19,73730.3,11.23,-26.29,-27.67,0,*74
1493964504.71,5997,14.19,73730.3,11.21,-26.29,-27.55,0,*76
1493964505.95,5998,14.25,73732.5,11.21,-26.33,-27.51,0,*76
1493964507.21,5999,14.25,73730.8,11.25,-26.97,-28.09,0,*7F